Location: Bagnolo San Vito
(45.0833°N, 10.8833°E)
Time: 22:59:57
(UTC+00:00)

Cosmos 1486 Rocket - Pass Details

Date: 03 March 2021
Orbit: 758 x 784 km, 74.1° (Epoch: 17 April)

Event Time Altitude Azimuth Distance (km) Brightness Sun altitude
Rises 17:52:39 0° 338° (NNW) 3,255 7.6 -8.9°
Reaches altitude 10° 17:55:02 10° 339° (NNW) 2,328 6.8 -9.3°
Maximum altitude 18:00:20 88° 66° (ENE) 784 4.0 -10.3°
Drops below altitude 10° 18:05:39 10° 160° (SSE) 2,328 6.3 -11.2°
Sets 18:08:02 0° 160° (SSE) 3,254 7.0 -11.6°
